CZ-3A DEB, 40155

Orbit data source: Space-Track

CZ-3A DEB, 40155 is space debris in HEO originally from a launch on Fri, 02 Feb 2007 UTC launched from the Xichang Space Center, China (XSC). Debris objects in space refer to the collection of defunct objects orbiting the Earth. Examples of debris include non-operational satellites, rocket bodies, and fragments generated from explosions, collisions, or faulty payload assembly.

Loading next visibility...
CZ-3A DEB details
Identifier
40155, 2007-003AP
Orbit
HEO
Last TLE update5 months ago
Origin
Flag of CNCNSA (CN / PRC)
ManufacturerUnknown
MissionSpacecraft
Bus & MotorUnknown
MassUnknown
Launch date (UTC)
2007-02-02 (18 years ago)
Launch vehicleUnknown
Launch site
Xichang Space Center, China (XSC)
Object type
Payload
Rocket body
Debris
Shape & HBRUnknown
Radar Cross SectionSmall (<0.1 m²)

Expand to show TLE details & history

TLE from 5 months ago
0 CZ-3A DEB
1 40155U 07003AP  24212.22462285  .00007906  00000-0  59304-1 0  9991
2 40155  23.5266 252.5152 7376837 242.7746  26.6133  2.04681030 23174
Epoch: 2024-07-30T05:23Z
Definitive object data (Epoch: 2024-07-30T05:23:27.414Z)
Latitude
Longitude-136.61616°
Altitude11,663.419 km
Speed5.383 km/s
True Right ascension16h 50m 22s
True Declination0° 00' 00"
Sunlit
Object was in daylight at TLE epoch
Visualization TLE readout
Latitude21.38272°
Longitude-72.83141°
Altitude23,783.972 km
Speed3.332 km/s
Apparent Right ascension21h 10m 52s
Apparent Declination16° 34' 18"
Sunlit
Object is in daylight
Visualization observer readout
Local Sidereal Time20:40:01
Azimuth161.775° S
Elevation65.712°
Doppler factor1
Orbital elements
Apogee altitude39,161.545 km
Perigee altitude496.417 km
Semi-major axis26,207.118 km
Eccentricity0.7376837
Inclination23.5266°
RAAN252.5152°
Arg. of periapsis242.7746°
True anomaly117.12913°
Mean anomaly26.6133°
Eccentric anomaly64.88285°
Mean motion0.51158 °/min
BSTAR0.059304
Orbital period703.7 mins
Loading maneuver chart data...
Loading historical data...
Loading historical data...
Loading historical data...
Loading historical data...
Loading historical data...
Loading historical data...
Loading historical data...

CZ-3A DEB Visibility forecast

Observer location: undefined°, undefined

Span
Click to sort rows by Start time (UTC) header in descending order
Start Az.
Max El. time (UTC)
Max El. Az.
Max El.
End time (UTC)
End Az.
527 mins2024-12-26 21:17:03.500Z161.794° S2024-12-26 21:17:03.500Z161.794° S42.343°2024-12-27 06:04:03.500Z214.073° SW
148 mins2024-12-27 18:49:03.500Z236.641° WSW2024-12-27 19:25:03.500Z160.906° S41.875°2024-12-27 21:17:03.500Z140.291° SSE
|